This is the latest recevied weather packets stored in our database for station/object WX4ET. If no packets are shown the sender has not sent any weather packets the latest 10 day(s).
| Time | Temp. | Humidity | Pressure | Rain* | Wind** | Luminosity | Snow |
|---|---|---|---|---|---|---|---|
| 1777229937 | 26.11° C | 48% | 1009 hPa | 0 mm | - | 630 W/m² | - |
| 1777229634 | 25.56° C | 51% | 1009.1 hPa | 0 mm | - | 628 W/m² | - |
| 1777229330 | 26.11° C | 50% | 1009.4 hPa | 0 mm | - | 631 W/m² | - |
| 1777229027 | 25.56° C | 59% | 1008.9 hPa | 0 mm | - | 642 W/m² | - |
| 1777228724 | 24.44° C | 51% | 1009.2 hPa | 0 mm | - | 640 W/m² | - |
| 1777228420 | 24.44° C | 51% | 1009.1 hPa | 0 mm | - | 649 W/m² | - |
| 1777228116 | 24.44° C | 52% | 1009.2 hPa | 0 mm | - | 658 W/m² | - |
| 1777227815 | 24.44° C | 55% | 1009.6 hPa | 0 mm | - | 642 W/m² | - |
| 1777227512 | 24.44° C | 53% | 1009.4 hPa | 0 mm | - | 633 W/m² | - |
| 1777227207 | 23.89° C | 54% | 1009.6 hPa | 0 mm | - | 650 W/m² | - |
| 1777226905 | 23.89° C | 54% | 1009.6 hPa | 0 mm | - | 653 W/m² | - |
| 1777226602 | 24.44° C | 55% | 1009.6 hPa | 0 mm | - | 653 W/m² | - |
| 1777226299 | 25.56° C | 50% | 1009.5 hPa | 0 mm | - | 646 W/m² | - |
| 1777225995 | 25° C | 50% | 1009.7 hPa | 0 mm | - | 646 W/m² | - |
| 1777225690 | 23.89° C | 53% | 1009.6 hPa | 0 mm | - | 653 W/m² | - |
| 1777225388 | 23.89° C | 55% | 1009.7 hPa | 0 mm | - | 653 W/m² | - |
| 1777225085 | 23.33° C | 59% | 1009.7 hPa | 0 mm | - | 643 W/m² | - |
| 1777224781 | 23.33° C | 57% | 1009.6 hPa | 0 mm | - | 645 W/m² | - |
| 1777224477 | 23.33° C | 58% | 1009.8 hPa | 0 mm | - | 640 W/m² | - |
| 1777224173 | 22.78° C | 59% | 1009.6 hPa | 0 mm | - | 635 W/m² | - |
| 1777223870 | 23.33° C | 60% | 1009.8 hPa | 0 mm | - | 677 W/m² | - |
| 1777223566 | 22.78° C | 59% | 1009.8 hPa | 0 mm | - | 682 W/m² | - |
| 1777223263 | 23.33° C | 61% | 1010 hPa | 0 mm | - | 202 W/m² | - |
| 1777222961 | 23.33° C | 56% | 1010.1 hPa | 0 mm | - | 677 W/m² | - |
| 1777222658 | 22.78° C | 60% | 1010 hPa | 0 mm | - | 227 W/m² | - |
* Rain latest hour (hover to see other rain measurements)
** Current wind speed in m/s (hover to see current wind gust speed)